This is the latest recevied weather packets stored in our database for station/object KD0ISH. If no packets are shown the sender has not sent any weather packets the latest 10 day(s).
| Time | Temp. | Humidity | Pressure | Rain* | Wind** | Luminosity | Snow |
|---|---|---|---|---|---|---|---|
| 1777609766 | 12.22° C | 81% | 1019.5 hPa | 0 mm | - | 0 W/m² | - |
| 1777609462 | 12.22° C | 81% | 1019.2 hPa | 0 mm | - | 0 W/m² | - |
| 1777609160 | 12.78° C | 80% | 1019.4 hPa | 0 mm | - | 0 W/m² | - |
| 1777608857 | 12.22° C | 80% | 1019.1 hPa | 0 mm | - | 0 W/m² | - |
| 1777608553 | 12.78° C | 80% | 1019.3 hPa | 0 mm | - | 0 W/m² | - |
| 1777608251 | 12.78° C | 80% | 1019.1 hPa | 0 mm | - | 0 W/m² | - |
| 1777607949 | 12.78° C | 80% | 1019.2 hPa | 0 mm | - | 0 W/m² | - |
| 1777607644 | 12.78° C | 79% | 1019.2 hPa | 0 mm | - | 0 W/m² | - |
| 1777607341 | 12.78° C | 79% | 1019.2 hPa | 0 mm | - | 0 W/m² | - |
| 1777607036 | 12.78° C | 78% | 1019.3 hPa | 0 mm | - | 0 W/m² | - |
| 1777606732 | 12.78° C | 78% | 1019.2 hPa | 0 mm | - | 0 W/m² | - |
| 1777606428 | 12.78° C | 77% | 1019.1 hPa | 0 mm | - | 0 W/m² | - |
| 1777606122 | 12.78° C | 77% | 1018.8 hPa | 0 mm | - | 0 W/m² | - |
| 1777605819 | 13.33° C | 77% | 1019.1 hPa | 0 mm | - | 0 W/m² | - |
| 1777605519 | 13.33° C | 76% | 1019.1 hPa | 0 mm | - | 0 W/m² | - |
| 1777605215 | 13.33° C | 76% | 1018.8 hPa | 0 mm | - | 0 W/m² | - |
| 1777604911 | 13.33° C | 75% | 1019 hPa | 0 mm | - | 0 W/m² | - |
| 1777604607 | 13.33° C | 75% | 1018.9 hPa | 0 mm | - | 0 W/m² | - |
| 1777604303 | 13.89° C | 74% | 1018.8 hPa | 0 mm | - | 0 W/m² | - |
| 1777603998 | 13.89° C | 74% | 1018.9 hPa | 0 mm | - | 0 W/m² | - |
| 1777603696 | 13.89° C | 74% | 1018.9 hPa | 0 mm | - | 0 W/m² | - |
| 1777603392 | 13.89° C | 73% | 1018.9 hPa | 0 mm | - | 0 W/m² | - |
| 1777603088 | 13.89° C | 72% | 1019 hPa | 0 mm | - | 0 W/m² | - |
| 1777602783 | 14.44° C | 72% | 1018.8 hPa | 0 mm | - | 0 W/m² | - |
| 1777602478 | 14.44° C | 72% | 1018.8 hPa | 0 mm | - | 0 W/m² | - |
* Rain latest hour (hover to see other rain measurements)
** Current wind speed in m/s (hover to see current wind gust speed)